TimeEST,TemperatureF,Dew PointF,Humidity,Sea Level PressureIn,VisibilityMPH,Wind Direction,Wind SpeedMPH,Gust SpeedMPH,PrecipitationIn,Events,Conditions,WindDirDegrees,DateUTC
12:53 AM,39.9,34.0,79,30.09,8.0,Calm,Calm,-,N/A,,Clear,0,2013-03-05 05:53:00
2:53 AM,37.0,32.0,82,30.11,10.0,Calm,Calm,-,N/A,,Clear,0,2013-03-05 07:53:00
3:53 AM,35.1,30.9,85,30.10,9.0,Calm,Calm,-,N/A,,Clear,0,2013-03-05 08:53:00
4:53 AM,37.0,33.1,86,30.08,7.0,Calm,Calm,-,N/A,,Clear,0,2013-03-05 09:53:00
5:53 AM,39.0,36.0,89,30.08,7.0,SE,3.5,-,N/A,,Mostly Cloudy,140,2013-03-05 10:53:00
6:53 AM,41.0,35.1,79,30.08,7.0,East,3.5,-,N/A,,Overcast,80,2013-03-05 11:53:00
7:53 AM,44.6,37.4,76,30.07,7.0,Calm,Calm,-,N/A,,Overcast,0,2013-03-05 12:53:00
8:53 AM,48.0,37.0,66,30.06,10.0,SSE,5.8,-,N/A,,Overcast,160,2013-03-05 13:53:00
9:53 AM,52.0,34.0,50,30.05,10.0,SSW,10.4,-,N/A,,Overcast,210,2013-03-05 14:53:00
10:53 AM,57.0,36.0,45,30.02,10.0,SW,10.4,19.6,N/A,,Overcast,220,2013-03-05 15:53:00
11:53 AM,64.9,44.1,47,29.98,10.0,SW,15.0,25.3,N/A,,Overcast,230,2013-03-05 16:53:00
12:53 PM,66.9,46.9,49,29.94,10.0,SSW,18.4,25.3,N/A,,Scattered Clouds,200,2013-03-05 17:53:00
1:53 PM,68.0,50.0,52,29.90,10.0,SW,15.0,25.3,N/A,,Mostly Cloudy,220,2013-03-05 18:53:00
2:53 PM,63.0,52.0,67,29.89,10.0,SW,11.5,21.9,0.00,Rain,Light Rain,220,2013-03-05 19:53:00
3:53 PM,66.0,51.1,59,29.84,10.0,SSW,12.7,21.9,0.00,,Mostly Cloudy,200,2013-03-05 20:53:00
4:53 PM,64.0,51.1,63,29.82,10.0,SSW,10.4,-,N/A,,Overcast,200,2013-03-05 21:53:00
5:53 PM,64.9,52.0,63,29.75,10.0,South,16.1,21.9,N/A,,Mostly Cloudy,180,2013-03-05 22:53:00
6:53 PM,64.0,53.1,67,29.70,10.0,South,13.8,-,0.00,Rain,Light Rain,170,2013-03-05 23:53:00
7:46 PM,60.8,55.4,82,29.73,1.2,WSW,13.8,21.9,0.14,Rain,Heavy Rain,240,2013-03-06 00:46:00
7:53 PM,61.0,55.9,83,29.73,2.0,WSW,16.1,27.6,0.23,Rain,Rain,240,2013-03-06 00:53:00
8:00 PM,62.6,55.4,77,29.73,7.0,WSW,16.1,29.9,0.01,Rain,Light Rain,240,2013-03-06 01:00:00
8:53 PM,60.1,55.9,86,29.74,10.0,WSW,9.2,-,0.01,,Scattered Clouds,240,2013-03-06 01:53:00
9:53 PM,59.0,50.0,72,29.76,10.0,WNW,21.9,35.7,N/A,,Mostly Cloudy,290,2013-03-06 02:53:00
10:53 PM,52.0,37.0,57,29.80,10.0,West,17.3,32.2,N/A,,Clear,280,2013-03-06 03:53:00
11:53 PM,48.0,36.0,63,29.81,10.0,West,21.9,28.8,N/A,,Clear,280,2013-03-06 04:53:00